Time,TemperatureF,DewpointF,PressureIn,WindDirection,WindDirectionDegrees,WindSpeedMPH,WindSpeedGustMPH,Humidity,HourlyPrecipIn,Conditions,Clouds,dailyrainin,SoftwareType,DateUTC
2013-07-17 00:01:00,64.0,59.0,30.16,WSW,237,0.0,0.0,85,0.00,,,-99.99,,2013-07-17 04:01:00,
2013-07-17 00:43:00,62.0,58.0,30.16,WSW,237,0.0,0.0,86,0.00,,,-99.99,,2013-07-17 04:43:00,
2013-07-17 00:53:00,62.0,58.0,30.15,WSW,237,0.0,0.0,86,0.00,,,-99.99,,2013-07-17 04:53:00,
2013-07-17 01:02:00,62.0,58.0,30.15,WSW,237,0.0,0.0,88,0.00,,,-99.99,,2013-07-17 05:02:00,
2013-07-17 01:11:00,62.0,58.0,30.15,WSW,237,0.0,0.0,88,0.00,,,-99.99,,2013-07-17 05:11:00,
2013-07-17 01:32:00,61.0,58.0,30.15,WSW,237,0.0,0.0,89,0.00,,,-99.99,,2013-07-17 05:32:00,
2013-07-17 01:43:00,61.0,58.0,30.15,WSW,237,0.0,0.0,89,0.00,,,-99.99,,2013-07-17 05:43:00,
2013-07-17 01:52:00,61.0,58.0,30.15,WSW,237,0.0,0.0,89,0.00,,,-99.99,,2013-07-17 05:52:00,
2013-07-17 02:01:00,60.0,57.0,30.14,WSW,237,0.0,0.0,90,0.00,,,-99.99,,2013-07-17 06:01:00,
2013-07-17 02:11:00,60.0,57.0,30.15,WSW,237,0.0,0.0,90,0.00,,,-99.99,,2013-07-17 06:11:00,
2013-07-17 02:22:00,60.0,57.0,30.15,WSW,237,0.0,0.0,90,0.00,,,-99.99,,2013-07-17 06:22:00,
2013-07-17 02:33:00,60.0,57.0,30.15,WSW,237,0.0,0.0,91,0.00,,,-99.99,,2013-07-17 06:33:00,
2013-07-17 02:43:00,60.0,57.0,30.15,WSW,237,0.0,0.0,91,0.00,,,-99.99,,2013-07-17 06:43:00,
2013-07-17 02:52:00,60.0,57.0,30.15,WSW,237,0.0,0.0,91,0.00,,,-99.99,,2013-07-17 06:52:00,
2013-07-17 03:01:00,61.0,58.0,30.15,WSW,237,0.0,0.0,91,0.00,,,-99.99,,2013-07-17 07:01:00,
2013-07-17 03:11:00,61.0,58.0,30.15,WSW,237,0.0,0.0,91,0.00,,,-99.99,,2013-07-17 07:11:00,
2013-07-17 03:22:00,61.0,58.0,30.15,WSW,237,0.0,0.0,90,0.00,,,-99.99,,2013-07-17 07:22:00,
2013-07-17 03:42:00,62.0,58.0,30.16,SW,222,0.0,0.0,88,0.00,,,-99.99,,2013-07-17 07:42:00,
2013-07-17 03:52:00,62.0,58.0,30.16,SW,222,0.0,0.0,88,0.00,,,-99.99,,2013-07-17 07:52:00,
2013-07-17 04:02:00,62.0,59.0,30.16,SW,220,0.0,0.0,89,0.00,,,-99.99,,2013-07-17 08:02:00,
2013-07-17 04:22:00,61.0,58.0,30.16,SW,220,0.0,0.0,91,0.00,,,-99.99,,2013-07-17 08:22:00,
2013-07-17 04:32:00,61.0,58.0,30.16,SW,220,0.0,0.0,91,0.00,,,-99.99,,2013-07-17 08:32:00,
2013-07-17 04:43:00,61.0,59.0,30.16,SW,220,0.0,0.0,92,0.00,,,-99.99,,2013-07-17 08:43:00,
2013-07-17 04:53:00,61.0,59.0,30.16,SW,220,0.0,0.0,93,0.00,,,-99.99,,2013-07-17 08:53:00,
2013-07-17 05:02:00,61.0,59.0,30.16,SW,220,0.0,0.0,93,0.00,,,-99.99,,2013-07-17 09:02:00,
2013-07-17 05:12:00,61.0,59.0,30.17,SW,220,0.0,0.0,93,0.00,,,-99.99,,2013-07-17 09:12:00,
2013-07-17 05:22:00,60.0,58.0,30.18,SW,220,0.0,0.0,93,0.00,,,-99.99,,2013-07-17 09:22:00,
2013-07-17 05:32:00,60.0,58.0,30.18,SW,220,0.0,0.0,93,0.00,,,-99.99,,2013-07-17 09:32:00,
2013-07-17 05:43:00,60.0,58.0,30.18,SW,220,0.0,0.0,94,0.00,,,-99.99,,2013-07-17 09:43:00,
2013-07-17 05:52:00,61.0,60.0,30.19,SW,220,0.0,0.0,95,0.00,,,-99.99,,2013-07-17 09:52:00,
2013-07-17 06:01:00,61.0,60.0,30.19,SW,220,0.0,0.0,95,0.00,,,-99.99,,2013-07-17 10:01:00,
2013-07-17 06:11:00,62.0,60.0,30.18,SSW,208,0.0,0.0,93,0.00,,,-99.99,,2013-07-17 10:11:00,
2013-07-17 06:22:00,63.0,61.0,30.18,SSW,207,0.0,0.0,93,0.00,,,-99.99,,2013-07-17 10:22:00,
2013-07-17 06:32:00,63.0,60.0,30.18,SSW,208,0.0,0.0,91,0.00,,,-99.99,,2013-07-17 10:32:00,
2013-07-17 06:43:00,64.0,61.0,30.19,SSW,208,0.0,0.0,90,0.00,,,-99.99,,2013-07-17 10:43:00,
2013-07-17 06:52:00,64.0,60.0,30.19,SSW,208,0.0,0.0,88,0.00,,,-99.99,,2013-07-17 10:52:00,
2013-07-17 07:02:00,65.0,61.0,30.19,SSW,202,0.0,4.0,87,0.00,,,-99.99,,2013-07-17 11:02:00,
2013-07-17 07:11:00,65.0,61.0,30.19,SSW,202,0.0,2.0,87,0.00,,,-99.99,,2013-07-17 11:11:00,
2013-07-17 07:22:00,66.0,62.0,30.19,SSW,202,0.0,2.0,86,0.00,,,-99.99,,2013-07-17 11:22:00,
2013-07-17 07:32:00,66.0,61.0,30.19,SSW,203,0.0,1.0,83,0.00,,,-99.99,,2013-07-17 11:32:00,
2013-07-17 07:42:00,67.0,61.0,30.18,SSW,203,0.0,1.0,81,0.00,,,-99.99,,2013-07-17 11:42:00,
2013-07-17 07:52:00,67.0,61.0,30.18,SSW,203,0.0,1.0,81,0.00,,,-99.99,,2013-07-17 11:52:00,
2013-07-17 08:22:00,68.0,61.0,30.18,SW,222,2.0,5.0,77,0.00,,,-99.99,,2013-07-17 12:22:00,
2013-07-17 08:32:00,69.0,59.0,30.18,SE,143,0.0,8.0,71,0.00,,,-99.99,,2013-07-17 12:32:00,
2013-07-17 08:53:00,70.0,60.0,30.18,South,189,1.0,8.0,70,0.00,,,-99.99,,2013-07-17 12:53:00,
2013-07-17 09:22:00,72.0,59.0,30.17,SSE,157,0.0,8.0,64,0.00,,,-99.99,,2013-07-17 13:22:00,
2013-07-17 09:43:00,72.0,57.0,30.17,ESE,111,1.0,11.0,60,0.00,,,-99.99,,2013-07-17 13:43:00,
2013-07-17 09:52:00,73.0,58.0,30.17,West,280,3.0,9.0,59,0.00,,,-99.99,,2013-07-17 13:52:00,
2013-07-17 11:22:00,76.0,62.0,30.13,SSE,155,5.0,10.0,62,0.00,,,-99.99,,2013-07-17 15:22:00,
2013-07-17 11:32:00,76.0,62.0,30.14,SE,130,0.0,12.0,61,0.00,,,-99.99,,2013-07-17 15:32:00,
2013-07-17 11:52:00,76.0,61.0,30.12,SSW,203,6.0,15.0,60,0.00,,,-99.99,,2013-07-17 15:52:00,
2013-07-17 12:02:00,77.0,63.0,30.12,South,190,6.0,11.0,61,0.00,,,-99.99,,2013-07-17 16:02:00,
2013-07-17 14:52:00,75.0,65.0,30.06,South,182,6.0,12.0,71,0.00,,,-99.99,,2013-07-17 18:52:00,
2013-07-17 15:01:00,74.0,64.0,30.06,SSE,149,3.0,14.0,72,0.00,,,-99.99,,2013-07-17 19:01:00,
2013-07-17 15:32:00,75.0,66.0,30.04,South,186,6.0,9.0,73,0.00,,,-99.99,,2013-07-17 19:32:00,
2013-07-17 15:53:00,76.0,66.0,30.03,SSE,167,0.0,14.0,71,0.00,,,-99.99,,2013-07-17 19:53:00,
2013-07-17 16:43:00,76.0,66.0,30.00,WSW,240,0.0,9.0,71,0.00,,,-99.99,,2013-07-17 20:43:00,
2013-07-17 17:32:00,77.0,66.0,29.98,WSW,249,1.0,11.0,69,0.00,,,-99.99,,2013-07-17 21:32:00,
2013-07-17 18:11:00,76.0,65.0,29.96,SSE,163,3.0,9.0,70,0.00,,,-99.99,,2013-07-17 22:11:00,
2013-07-17 18:32:00,76.0,66.0,29.96,South,189,0.0,9.0,72,0.00,,,-99.99,,2013-07-17 22:32:00,
2013-07-17 18:43:00,75.0,65.0,29.96,SSW,195,0.0,6.0,72,0.00,,,-99.99,,2013-07-17 22:43:00,
2013-07-17 18:53:00,75.0,65.0,29.96,WNW,287,1.0,11.0,72,0.00,,,-99.99,,2013-07-17 22:53:00,
2013-07-17 19:02:00,75.0,65.0,29.96,West,276,0.0,12.0,72,0.00,,,-99.99,,2013-07-17 23:02:00,
2013-07-17 19:22:00,74.0,65.0,29.96,North,3,0.0,6.0,74,0.00,,,-99.99,,2013-07-17 23:22:00,
2013-07-17 19:52:00,71.0,64.0,29.96,SSW,193,0.0,8.0,79,0.00,,,-99.99,,2013-07-17 23:52:00,
2013-07-17 20:01:00,70.0,64.0,29.96,SW,222,0.0,8.0,81,0.00,,,-99.99,,2013-07-18 00:01:00,
2013-07-17 20:11:00,69.0,63.0,29.97,SSE,161,0.0,5.0,82,0.00,,,-99.99,,2013-07-18 00:11:00,
2013-07-17 20:22:00,69.0,64.0,29.96,South,174,0.0,5.0,83,0.00,,,-99.99,,2013-07-18 00:22:00,
2013-07-17 20:33:00,69.0,64.0,29.96,SW,229,1.0,5.0,84,0.00,,,-99.99,,2013-07-18 00:33:00,
2013-07-17 20:43:00,68.0,64.0,29.96,South,186,4.0,5.0,86,0.00,,,-99.99,,2013-07-18 00:43:00,
2013-07-17 20:52:00,68.0,64.0,29.96,SSE,151,0.0,6.0,86,0.00,,,-99.99,,2013-07-18 00:52:00,
2013-07-17 21:01:00,68.0,64.0,29.95,SW,228,0.0,4.0,86,0.00,,,-99.99,,2013-07-18 01:01:00,
2013-07-17 21:11:00,68.0,64.0,29.95,SW,228,0.0,4.0,86,0.00,,,-99.99,,2013-07-18 01:11:00,
2013-07-17 21:32:00,68.0,64.0,29.93,South,182,0.0,3.0,86,0.00,,,-99.99,,2013-07-18 01:32:00,
2013-07-17 21:43:00,68.0,63.0,29.93,WSW,244,0.0,5.0,85,0.00,,,-99.99,,2013-07-18 01:43:00,
2013-07-17 21:53:00,68.0,63.0,29.93,West,262,0.0,8.0,85,0.00,,,-99.99,,2013-07-18 01:53:00,
2013-07-17 22:52:00,69.0,63.0,29.93,SSW,201,0.0,4.0,82,0.00,,,-99.99,,2013-07-18 02:52:00,
2013-07-17 23:01:00,69.0,64.0,29.91,SSW,203,0.0,6.0,83,0.00,,,-99.99,,2013-07-18 03:01:00,
2013-07-17 23:11:00,69.0,65.0,29.91,SSW,199,0.0,5.0,86,0.00,,,-99.99,,2013-07-18 03:11:00,